Purchase, NY

3:36 AM EST on February 09, 2016 (GMT -0500)
Westchester County

Weather History for KHPN - May, 2013

Change the Weather History Date:

Sunday, May 12, 2013

  Actual Average Record
Temperature  
Mean Temperature 58 °F -  
Max Temperature 68 °F 65 °F 85 °F (1991)
Min Temperature 50 °F 46 °F 38 °F (1990)
Degree Days  
Heating Degree Days 6    
Growing Degree Days 8 (Base 50)    
Moisture  
Dew Point 42 °F    
Average Humidity 58    
Maximum Humidity 93    
Minimum Humidity 28    
Precipitation  
Precipitation 0.06 in - - ()
Sea Level Pressure  
Sea Level Pressure 29.72 in    
Wind  
Wind Speed 7 mph (West)    
Max Wind Speed 18 mph    
Max Gust Speed 28 mph    
Visibility 9 miles    
Events Rain    
Averages and records for this station are not official NWS values.
T = Trace of Precipitation, MM = Missing Value Source: NWS Daily Summary

Daily Weather History Graph

Daily Weather History Graph

Search for Another Location

Airport or City:

Trip Planner

Search our weather history database for the weather conditions in past years. The results will help you decide how hot, cold, wet, or windy it might be!

Date:

Astronomy

May. 12, 2013 Rise Set
Actual Time 5:39 AM EDT 8:03 PM EDT
Civil Twilight 5:08 AM EDT 8:34 PM EDT
Nautical Twilight 4:30 AM EDT 9:13 PM EDT
Astronomical Twilight 3:47 AM EDT 9:55 PM EDT
Moon 7:32 AM EDT (5/12) 10:28 PM EDT (5/12)
Length of Visible Light 15h 25m
Length of Day
14h 23m
Waxing Crescent, 6% of the Moon is Illuminated
May 12
Waxing Crescent
May 18
First Quarter
May 25
Full
May 31
Last Quarter
Jun 8
New

Hourly Weather History & Observations

Time (EDT) Temp. Dew Point Humidity Pressure Visibility Wind Dir Wind Speed Gust Speed Precip Events Conditions
12:56 AM 60.1 °F 57.9 °F 93% 29.69 in 1.5 mi Calm Calm - 0.01 in   Mist
1:56 AM 60.1 °F 57.9 °F 93% 29.67 in 1.5 mi West 5.8 mph - N/A   Mist
2:56 AM 59.0 °F 57.0 °F 93% 29.65 in 7.0 mi West 5.8 mph - N/A   Mostly Cloudy
3:56 AM 59.0 °F 55.0 °F 87% 29.67 in 9.0 mi WSW 3.5 mph - N/A   Mostly Cloudy
4:56 AM 57.9 °F 54.0 °F 87% 29.68 in 9.0 mi SW 3.5 mph - 0.00 in   Overcast
5:56 AM 57.0 °F 54.0 °F 89% 29.69 in 7.0 mi West 3.5 mph - 0.01 in   Overcast
6:10 AM 57.2 °F 53.6 °F 88% 29.69 in 1.8 mi West 6.9 mph - 0.03 in Rain Light Rain
6:17 AM 57.2 °F 51.8 °F 82% 29.69 in 7.0 mi West 8.1 mph - 0.04 in Rain Light Rain
6:56 AM 55.9 °F 51.1 °F 84% 29.69 in 10.0 mi Calm Calm - 0.04 in Rain Light Rain
7:56 AM 55.0 °F 50.0 °F 83% 29.69 in 10.0 mi West 6.9 mph - 0.00 in Rain Light Rain
8:56 AM 57.9 °F 48.9 °F 72% 29.69 in 10.0 mi West 9.2 mph - 0.00 in   Mostly Cloudy
9:56 AM 61.0 °F 50.0 °F 67% 29.68 in 10.0 mi NW 6.9 mph - N/A   Partly Cloudy
10:56 AM 62.1 °F 48.0 °F 60% 29.68 in 10.0 mi WNW 6.9 mph - N/A   Partly Cloudy
11:56 AM 64.9 °F 44.1 °F 47% 29.67 in 10.0 mi WNW 9.2 mph 18.4 mph N/A   Scattered Clouds
12:56 PM 66.9 °F 39.9 °F 37% 29.66 in 10.0 mi WSW 11.5 mph 19.6 mph N/A   Scattered Clouds
1:56 PM 66.9 °F 39.9 °F 37% 29.66 in 10.0 mi WSW 16.1 mph 20.7 mph N/A   Scattered Clouds
2:56 PM 66.0 °F 33.1 °F 29% 29.66 in 10.0 mi West 15.0 mph 23.0 mph N/A   Scattered Clouds
3:56 PM 66.0 °F 37.9 °F 36% 29.66 in 10.0 mi West 17.3 mph 27.6 mph N/A   Scattered Clouds
4:56 PM 63.0 °F 30.9 °F 30% 29.68 in 10.0 mi NW 17.3 mph 25.3 mph N/A   Scattered Clouds
5:56 PM 60.1 °F 27.0 °F 28% 29.72 in 10.0 mi NW 15.0 mph 24.2 mph N/A   Scattered Clouds
6:56 PM 59.0 °F 27.0 °F 29% 29.75 in 10.0 mi NW 13.8 mph 24.2 mph N/A   Scattered Clouds
7:56 PM 57.9 °F 26.1 °F 30% 29.78 in 10.0 mi West 8.1 mph - N/A   Scattered Clouds
8:56 PM 55.9 °F 24.1 °F 29% 29.82 in 10.0 mi West 13.8 mph 20.7 mph N/A   Clear
9:56 PM 54.0 °F 23.0 °F 30% 29.87 in 10.0 mi WNW 18.4 mph 24.2 mph N/A   Scattered Clouds
10:56 PM 51.1 °F 25.0 °F 36% 29.89 in 10.0 mi West 12.7 mph 20.7 mph N/A   Clear
11:56 PM 50.0 °F 27.0 °F 41% 29.91 in 10.0 mi West 8.1 mph - N/A   Clear